Find WHDW 22-06

NORAD ID: 69577 Int'l Des: 2026-137 Owner: ZXW Country: CN Constellation: xingwang operational
LEOCIRCULAR

現在のビュー

3D地球を読み込み中...

About WHDW 22-06

WHDW 22-06 (NORAD 69577) is a xingwang constellation satellite launched Jun 17, 2026 by ZXW of CN. It operates in LEO, CIRCULAR orbit with a mass of 800.00 kg.

WHDW 22-06について

説明を読み込み中...

次回通過

Passes for default location (London). Set your location on the main map for personalized predictions.

高度履歴

Loading altitude history...

軌道要素

1 69577U 26137F 26169.59412454 -.00000117 00000-0 22929-4 0 9999
2 69577 50.0024 249.8081 0010459 233.8133 126.1800 13.92574485 221
Epoch: Jun 18, 2026 • Age: 5 hours

現在のステータス

高度 930.1 km
速度 7.39 km/s
衛星直下点 37.83°N, 87.06°E
打ち上げ日 Jun 17, 2026
運用期間 1 day
タイプ other

技術仕様

分類 Payload
質量 800.00 kg
乾燥質量 800.00 kg
総質量 800.00 kg
長さ 3.00 m
直径 1.00 m
スパン 10.00 m
形状 Box + 2 Pan
製造者 YINNT
バスタイプ Xingwang Y
フェーズステータス In Orbit
所有者/国 ZXW/CN

Most Searched